CZ-2C R/B

Satellite information

Favourite Embed

Satellite Type and Status

ROCKET BODYIN ORBIT

Key statistics

Satellite CZ-2C R/B at a glance.

Uptime

1543

Days in orbit

Revolutions

≈ 14.9

Per day

Orbit

LEO

Low Earth Orbit

Inclination

35.1

Latest

Satellite identification and parameters

Extended collection of information and parameters for CZ-2C R/B.

Object identification

Identified? True

Debris? False

Object name: CZ-2C R/B

International designator: 2021-055C

Object number (NORAD): 48862

Object ID (CCSDS): 48862

Country: PEOPLES REPUBLIC OF CHINA (PRC)

Current information (Y/N): Y

RCS size: LARGE

Orbital parameters

Period: 96.82 minutes

Inclination: 35.0698 deg

SMA: 6984.519 km

Apoapsis: 654.302 km

Periapsis: 558.465 km

RAAN: 227.296 deg

Eccentricy: 0.00686065

Argument of periapsis: 13.3281 deg

Mean anomaly: 346.9219 deg

Mean motion: 14.87298103 rev/day

Mean motion (dot): 0.00002835 rev/day2

B* drag term: 0.00029865052 1/REarth

Two-line elements (TLE)

Creation date: Sept. 8, 2025, 3:16 a.m.

Reference frame: TEME

Reference center: EARTH

Epoch: Sept. 7, 2025, 2:58 p.m. UTC

TLE line 0: 0 CZ-2C R/B

TLE line 1: 1 48862U 21055C 25250.62382696 .00002835 00000-0 29865-3 0 9998

TLE line 2: 2 48862 35.0698 227.2960 0068606 13.3281 346.9219 14.87298103229115

Live tracking on map

Real-time ground track for satellite CZ-2C R/B.

In-orbit conjunctions

A list of the most updated potential collisions computed for object CZ-2C R/B.

Target Orbit TCA Probability of collision Miss distance Type
CZ-4B DEB SSO 2024-07-04 05:53:19 0.000112502 255.0 (m) DEBRIS
PARASOL SSO 2024-05-30 17:22:23 0.0001500781 980.0 (m) PAYLOAD
CZ-6A DEB SSO 2024-05-27 17:43:44 0.0005547077 267.0 (m) DEBRIS

Associated space launch

The Yaogan-30 is a series of military remote sensing satellites which are launched in triplets. The satellites are spaced by 120° in their orbit.

CZ-2C R/B was lifted into orbit during the mission ‘Long March 2C | Yaogan-30-09’, on board a Long March 2 space rocket.

The launch took place on June 18, 2021, 6:30 a.m. from Launch Complex 3 (LC-3/LA-1).

For more information about the launch, click the button.

Launch to space Long March 2C | Yaogan-30-09
Long March 2C | Yaogan-30-09

Agency: N/A

Status: Launch Successful

Launch date: June 18, 2021, 6:30 a.m. UTC

Rocket: Long March 2

Launch pad: Launch Complex 3 (LC-3/LA-1)

Location: Xichang Satellite Launch Center, People's Republic of China

...

Latest news about this satellite

News about space launch
China launches Chang Zheng 2C with trio of Yaogan-30 satellites

China has successfully launched a Chang Zheng 2C (also known as the Long March 2C) from teh Xichang Satellite Launch Center with three new Yaogan-30 satellites on June 18 at 06:30 UTC / 14:30 local time at the launch site from LC-3 after a 24 hour delay d...

News about space launch
China launches new group of classified Yaogan-30 satellites

China launched a group of classified Yaogan-30 satellites and one commercial satellite on a Long March 2C rocket early Friday.


Newsletter sign-up

Weekly statistics, charts and insights to help you stay on top of the space industry.